Regional Weather Roundup
Issued by NWS Grand Forks, ND

Home | Current Version | Previous Version | Text Only | Print | Product List | Glossary On
Versions: 1 2 3 4 5 6 7 8 9 10 11 12 13 14 15 16 17 18 19 20 21 22 23 24 25 26 27 28 29 30 31 32 33 34 35 36 37 38 39 40 41 42 43 44 45 46 47 48 49 50
000
ASUS43 KFGF 202231
RWRFGF
PRAIRIE TO PINES  WEATHER ROUNDUP
NATIONAL WEATHER SERVICE EASTERN NORTH DAKOTA/GRAND FORKS ND
400 PM CST THU NOV 20 2014

 **SATELLITE DATA USED TO AUGMENT SKY COVER AT AUTOMATED STATIONS**
 *****  WEATHER ACROSS EASTERN NORTH DAKOTA  *****

CITY           SKY/WX    TMP DP  RH WIND       PRES   REMARKS
GRAND FORKS    PTCLDY    19   3  49 SW6       30.12S WCI  11
GRAND FRKS AFB CLEAR     20   2  45 SW5       30.11S WCI  14
GRAND FRKS NWS   N/A     18 N/A N/A SW3         N/A
DEVILS LAKE    CLEAR     18   3  53 S9        30.02F WCI   6
FARGO          CLEAR     21   2  43 SW3       30.14F
WAHPETON ARPT  CLEAR     18   9  68 SW6       30.16S WCI   9
$$

 ***** WEATHER ACROSS CENTRAL AND WESTERN NORTH DAKOTA  *****

CITY           SKY/WX    TMP DP  RH WIND       PRES   REMARKS
BISMARCK       CLEAR     21  10  62 S13       30.03F WCI   9
MINOT          CLEAR     21   8  57 S15       29.95F WCI   8
JAMESTOWN      CLEAR     20   7  57 SW9       30.07S WCI   9
MINOT AFB      CLEAR     21  11  63 S12       29.94F WCI  10
GARRISON         N/A     20  11  68 S13       29.96F WCI   7
WILLISTON      PTCLDY    22  13  68 S9        29.89F WCI  12
DICKINSON      CLEAR     23  18  81 S15       29.87F WCI  10
HETTINGER      CLEAR     27  20  75 SE12      29.92F WCI  17
$$

 *****  OTHER AIRPORT OBSERVATIONS IN OUR AREA  *****

CITY           SKY/WX    TMP DP  RH WIND       PRES   REMARKS
WALHALLA         N/A     18   5  57 SW6       30.07F WCI   9
GRAFTON AIRPOR FAIR      14   5  67 SE9       30.10F WCI   2
VALLEY CITY AR FAIR      18   7  62 SW8       30.09S WCI   7
CANDO          FAIR      18   7  62 SW12      30.03F WCI   5
CAVALIER APRT  FAIR      18   3  53 S5        30.09S WCI  11
GWINNER        CLEAR     19   9  63 SW7       30.13S WCI  10
SHEYENNE NWR     N/A     22   5  47 SW5       29.95S WCI  16
ROLLA          FAIR      16   7  67 SW12      29.98S WCI   3
 ***** THE ABOVE OBSERVATIONS ARE NON NWS ARE NOT QUALITY
       CONTROLLED AND MAY MIS-REPORT RAIN FOR SNOW...
$$

  *****  WEATHER ACROSS NORTHERN MINNESOTA  *****

CITY           SKY/WX    TMP DP  RH WIND       PRES   REMARKS
FLAG ISLAND    CLEAR     10   0  61 W3        30.07R
WARROAD        CLEAR      9   0  66 SW7       30.09S WCI  -3
ROSEAU         CLEAR     10   1  67 W6        30.10S WCI   1
HALLOCK        CLEAR     12   3  67 SE6       30.11S WCI   3
THF RVR FALLS  CLEAR      9   1  72 S7        30.12R WCI  -3
BAUDETTE       CLEAR      9  -2  61 W6        30.07R WCI  -1
WASKISH        CLEAR     10   1  67 CALM      30.10R
CROOKSTON      CLEAR     10   3  72 SE6       30.15R WCI   1
$$
  *****  WEATHER ACROSS CENTRAL AND WEST MINNESOTA  *****

CITY           SKY/WX    TMP DP  RH WIND       PRES   REMARKS
FOSSTON        CLEAR      7  -2  66 SW3       30.12S
BEMIDJI        CLEAR      8  -3  62 W8        30.09S WCI  -5
PARK RAPIDS    CLEAR     12  -2  53 W12       30.10R WCI  -2
ELBOW LAKE       N/A     11   5  76 SW5       30.15R WCI   3
WADENA         CLEAR     10   0  61 NW5       30.12R WCI   2
DETROIT LAKES  CLEAR     12   5  73 CALM      30.13S
MOORHEAD       CLEAR     19   1  45 CALM      30.15S
FERGUS FALLS   CLEAR     14   5  67 SW5       30.17S WCI   6
MORRIS MN      CLEAR     12   7  79 W3        30.16S
STAPLES        CLEAR     10   0  61 W6        30.13R WCI   1
$$
  *****  WEATHER ELSEWHERE ACROSS MINNESOTA  *****

CITY           SKY/WX    TMP DP  RH WIND       PRES   REMARKS
DULUTH         PTCLDY    12  -2  53 W13       30.04R WCI  -3
INTRNTL FALLS  PTCLDY     7  -3  64 W8        30.06R WCI  -6
ELY            CLEAR      9   0  66 W5        30.02R WCI   0
CLOQUET        CLEAR     12  -4  48 W6        30.07R WCI   3
WHEATON        CLEAR     14   5  67 CALM      30.19S
BRAINERD       CLEAR     14  -1  51 NW8       30.11R WCI   3
HIBBING        CLEAR     12  -3  51 W7        30.05R WCI   1
ALEXANDRIA     CLEAR     13   3  64 W8        30.13S WCI   2
SAINT CLOUD    CLEAR     17   0  47 W13       30.15R WCI   4
MINNEAPOLIS    CLEAR     16   1  51 NW14      30.17R WCI   2
$$

  *****  WEATHER ACROSS SOUTH DAKOTA  *****

CITY           SKY/WX    TMP DP  RH WIND       PRES   REMARKS
SIOUX FALLS    CLEAR     20  10  65 NW8       30.17F WCI  10
BROOKINGS      NOT AVBL
WATERTOWN      CLEAR     13   6  74 SW7       30.12S WCI   3
HURON          CLEAR     18   9  68 SE7       30.16S WCI   9
SISSETON         N/A     16   7  67 SE3       30.15R
ABERDEEN       CLEAR     16   9  74 SE9       30.14S WCI   4
MITCHELL       PTCLDY    23  11  60 CALM      30.17F
PIERRE         CLOUDY    22  17  81 SE12      30.06F WCI  10
MOBRIDGE       PTCLDY    24  15  68 S8        30.03S WCI  15
RAPID CITY     SUNNY     26  20  77 SE7       29.91F WCI  18
$$

  *****  SOME WEATHER IN NEARBY STATES *****

CITY           SKY/WX    TMP DP  RH WIND       PRES   REMARKS
GLASGOW MT     SUNNY     25  19  78 E7        29.81F WCI  17
GREAT FALLS MT PTSUNNY   45  25  45 SW18      29.78S
CHEYENNE WY    MOSUNNY   49   9  19 S7        29.94S
SCOTTSBLUFF NE SUNNY     54  17  23 N3        29.92F
OMAHA NE       PTCLDY    29  18  63 N7        30.22S WCI  22
DES MOINES IA  PTCLDY    28  14  55 NW10      30.22R WCI  19
DAVENPORT IA   CLEAR     25   6  44 NW14      30.19R WCI  13
CHICAGO IL     PTCLDY    25   1  35 W17G30    30.09R WCI  12
EAU CLAIRE WI  CLEAR     14  -2  49 W8        30.13R WCI   3
LA CROSSE WI   CLEAR     20   3  48 NW14      30.16R WCI   7
$$

  *****  SOME NATIONAL WEATHER *****

CITY           SKY/WX    TMP DP  RH WIND       PRES   REMARKS
LA GUARDIA NY  PTCLDY    44  17  33 W18G28    29.87R
RALEIGH NC     PTCLDY    54  26  34 W7        30.03R
ATLANTA GA     PTCLDY    60  28  29 NW8       30.17R
NEW ORLEANS LA MOSUNNY   66  46  48 S13       30.20S
OKLAHOMA CITY  MOSUNNY   62  35  36 SE5       30.00S
ALBUQUERQUE NM MOSUNNY   56   4  12 SE3       30.03F
SALT LAKE CITY MOSUNNY   50  24  36 VRB3      30.06S
LOS ANGELES CA CLOUDY    66  54  65 W10       30.03F
BOISE ID       CLOUDY    30  23  75 W5        30.10F HAZE
SEATTLE WA     CLOUDY    52  46  80 CALM      29.96S
$$

*** WEATHER ACROSS MANITOBA...SASKATCHEWAN AND ONTARIO ***
                ***ONTARIO***

CITY           SKY/WX    TMP DP  RH WIND       PRES   REMARKS
GERALDTON      PTCLDY    -2  -8  78 W5        29.89R WCI -12
THUNDER BAY    PTCLDY     7  -6  56 NW9       30.02R WCI  -7
SIOUX LOOKOUT  CRYSTALS   1  -6  71 W7        29.99R WCI -11
TORONTO        MOCLDY    23  14  68 W18       29.87R WCI   9
BIG TROUT LK   CLEAR     -6 -11  77 W10       29.90R WCI -23
PICKLE LAKE    PTCLDY     0  -9  65 W9        29.91R WCI -16
DRYDEN         CLEAR      1  -6  71 W8        30.00R WCI -12
KENORA         PTCLDY     5  -4  66 W6        30.04R WCI  -6
$$
                *** MANITOBA***

CITY           SKY/WX    TMP DP  RH WIND       PRES   REMARKS
BRANDON        MOCLDY    18   7  62 SW10      29.98F WCI   6
DAUPHIN        NOT AVBL
ISLAND LAKE    PTCLDY     1  -8  66 W10       29.94S WCI -14
PILOT MOUND      N/A     18   9  68 S9          N/A  WCI   6
THE PAS        CLOUDY    14   7  73 SE13      29.85F WCI   0
THOMPSON       MOCLDY     1  -8  66 SW6       29.88S WCI -10
WINNIPEG       PTCLDY     9   0  66 S9        30.10S WCI  -5
LYNN LAKE      PTCLDY     3   0  85 S3        29.76F
CHURCHILL      CRYSTALS  -9 -15  77 W13       29.83S WCI -30
GILLAM         PTCLDY    -6 -15  65 W9        29.88R WCI -22
$$
                ***SASKATCHEWAN***

CITY           SKY/WX    TMP DP  RH WIND       PRES   REMARKS
ESTEVAN        CLOUDY    19  10  68 S13       29.89S WCI   7
KINDERSLEY     MOCLDY    30  23  74 SW9       29.66F WCI  22
LLOYDMINSTER   MOCLDY    30  23  74 SW9       29.58F WCI  22
PRINCE ALBERT  FLURRIES  19  14  79 S9        29.72F WCI   9
REGINA         MOCLDY    21  18  86 S14       29.81F WCI   8
YORKTON        MOCLDY    18   9  68 S13G18    29.84F WCI   4
N. BATTLEFORD  CLOUDY    25  21  86 S8        29.67F WCI  16
LA RONGE       LGT SNOW  19  16  86 S10       29.65F VSB 1   WCI   8
SASKATOON      MOCLDY    27  21  80 S9        29.71F WCI  17
SWIFT CURRENT  CLEAR     28  23  80 S12G17    29.68F WCI  18
$$
NOTE: THESE ARE AUTOMATED STATIONS WITH LIMITED QUALITY CONTROL
      "FAIR" INDICATES FEW OR NO CLOUDS BELOW 12,000 FEET WITH NO
      SIGNIFICANT WEATHER AND/OR OBSTRUCTIONS TO VISIBILITY.
      SKY/WX - SKY CONDITION AND SIGNIFICANT WEATHER.
      TMP - AIR TEMPERATURE.    DP   - DEWPOINT TEMPERATURE.
      RH  - RELATIVE HUMIDITY.  PRES - PRESSURE.
      HX  - HEAT INDEX.         WCI  - WIND CHILL INDEX.
$


USA.gov is the U.S. government's official web portal to all federal, state and local government web resources and services.